Flag for Uruguay Weather past 2 weeks in Maldonado, Uruguay

Now
59 °F

Sunny.


Feels Like: 58 °F
Forecast: 60 / 77 °F
Wind: 6 mph from North

Location: Capitan Corbeta

Current Time: Mar 29, 2015 at 8:08:58 AM

Latest Report: Mar 29, 2015 at 7:00 AM


Visibility: 10 mi

Pressure: 30.07 "Hg

Humidity: 94%

Dew point: 57 °F

Location of MaldonadoLocation

Historic Weather in Maldonado — Graph

°F

Maldonado temperature yesterday

Maximum temperature yesterday: 70 °F (at 1:00 PM)
Minimum temperature yesterday: 52 °F (at 5:00 AM)
Average temperature yesterday: 61 °F

Past Weeks' High & Low Weather Summary

 TemperatureHumidityPressure
High90 °F (Mar 20, 2:00 PM)100% (Mar 16, 7:00 AM)30.18 "Hg (Mar 16, 7:00 AM)
Low46 °F (Mar 23, 6:00 AM)36% (Mar 20, 2:00 PM)29.71 "Hg (Mar 20, 2:00 PM)
Average67 °F71%30.04 "Hg
* Reported Mar 14 7:00 AM — Mar 29 7:00 AM, Maldonado, Weather by CustomWeather, © 2015

Note: Actual official high and low records may vary slightly from our data, if they occured in-between our weather recording intervals... More about our weather records

Advertising

Maldonado weather history for previous 24 hours

 ConditionsComfort  
Time TempWeatherWind HumidityBarometerVisibility
7:00 AM
Sun, Mar 29
59 °FSunny.6 mph94%30.07 "Hg10 mi
6:00 AM57 °FSunny.3 mph88%30.04 "Hg10 mi
5:00 AM57 °FClear.3 mph88%30.04 "Hg10 mi
4:00 AM59 °FClear.N/A88%30.07 "Hg10 mi
3:00 AM59 °FClear.6 mph88%30.07 "Hg10 mi
2:00 AM61 °FClear.3 mph88%30.09 "Hg10 mi
1:00 AM61 °FClear.3 mph88%30.09 "Hg10 mi
12:00 AM61 °FClear.7 mph88%30.09 "Hg10 mi
11:00 PM
Sat, Mar 28
63 °FClear.7 mph83%30.12 "Hg10 mi
10:00 PM64 °FClear.7 mph83%30.09 "Hg10 mi
9:00 PM63 °FClear.7 mph83%30.12 "Hg10 mi
8:00 PM63 °FPassing clouds.6 mph77%30.09 "HgN/A
7:00 PM64 °FPassing clouds.6 mph73%30.09 "HgN/A
6:00 PM68 °FPassing clouds.12 mph64%30.09 "HgN/A
5:00 PM68 °FPassing clouds.14 mph64%30.09 "HgN/A
4:00 PM70 °FPassing clouds.12 mph64%30.12 "HgN/A
3:00 PM70 °FPassing clouds.10 mph64%30.12 "HgN/A
2:00 PM70 °FPassing clouds.12 mph64%30.12 "HgN/A
1:00 PM70 °FPassing clouds.10 mph69%30.15 "HgN/A
11:00 AM68 °FScattered clouds.7 mph73%30.18 "HgN/A
10:00 AM63 °FPassing clouds.No wind88%30.18 "HgN/A
9:00 AM57 °FPartly sunny.No wind94%30.18 "Hg1 mi
Weather by CustomWeather, © 2015

See weather overviewHow to use our weather pages